This is the latest recevied weather packets stored in our database for station/object KN6ETB-1. If no packets are shown the sender has not sent any weather packets the latest 10 day(s).
| Time | Temp. | Humidity | Pressure | Rain* | Wind** | Luminosity | Snow |
|---|---|---|---|---|---|---|---|
| 1777430380 | 20° C | 60% | 1014.8 hPa | 0 mm | - | 12 W/m² | - |
| 1777430075 | 20.56° C | 60% | 1015 hPa | 0 mm | - | 15 W/m² | - |
| 1777429772 | 20.56° C | 59% | 1015 hPa | 0 mm | - | 19 W/m² | - |
| 1777429467 | 20.56° C | 58% | 1014.8 hPa | 0 mm | - | 24 W/m² | - |
| 1777429163 | 21.11° C | 58% | 1015.1 hPa | 0 mm | - | 28 W/m² | - |
| 1777428860 | 21.11° C | 57% | 1014.9 hPa | 0 mm | - | 32 W/m² | - |
| 1777428556 | 21.67° C | 56% | 1014.9 hPa | 0 mm | - | 36 W/m² | - |
| 1777428252 | 21.67° C | 55% | 1015 hPa | 0 mm | - | 42 W/m² | - |
| 1777427948 | 22.22° C | 53% | 1015.1 hPa | 0 mm | - | 48 W/m² | - |
| 1777427643 | 21.67° C | 54% | 1015 hPa | 0 mm | - | 60 W/m² | - |
| 1777427340 | 22.22° C | 52% | 1015.1 hPa | 0 mm | - | 66 W/m² | - |
| 1777427037 | 22.22° C | 50% | 1014.9 hPa | 0 mm | - | 74 W/m² | - |
| 1777426735 | 22.78° C | 49% | 1015.1 hPa | 0 mm | - | 85 W/m² | - |
| 1777426432 | 22.78° C | 47% | 1015.1 hPa | 0 mm | - | 95 W/m² | - |
| 1777426128 | 22.78° C | 45% | 1015 hPa | 0 mm | - | 109 W/m² | - |
| 1777425828 | 22.78° C | 45% | 1015.2 hPa | 0 mm | - | 121 W/m² | - |
| 1777425523 | 22.78° C | 45% | 1015.1 hPa | 0 mm | - | 136 W/m² | - |
| 1777425218 | 22.78° C | 45% | 1015.1 hPa | 0 mm | - | 144 W/m² | - |
| 1777424916 | 22.78° C | 45% | 1015.3 hPa | 0 mm | - | 147 W/m² | - |
| 1777424612 | 23.33° C | 45% | 1015.1 hPa | 0 mm | - | 162 W/m² | - |
| 1777424307 | 23.33° C | 45% | 1015.1 hPa | 0 mm | - | 170 W/m² | - |
| 1777424003 | 23.33° C | 46% | 1015.1 hPa | 0 mm | - | 188 W/m² | - |
| 1777423700 | 23.33° C | 46% | 1014.9 hPa | 0 mm | - | 202 W/m² | - |
| 1777423396 | 23.89° C | 47% | 1015.2 hPa | 0 mm | - | 208 W/m² | - |
| 1777423090 | 23.33° C | 47% | 1015.2 hPa | 0 mm | - | 222 W/m² | - |
* Rain latest hour (hover to see other rain measurements)
** Current wind speed in m/s (hover to see current wind gust speed)